DELTA 1 DEB, 10214

Orbit data source: Space-Track

DELTA 1 DEB, 10214 is space debris in LEO originally from a launch on Thu, 14 Jul 1977 UTC launched from the Air Force Eastern Test Range (AFETR). Debris objects in space refer to the collection of defunct objects orbiting the Earth. Examples of debris include non-operational satellites, rocket bodies, and fragments generated from explosions, collisions, or faulty payload assembly.

Loading next visibility...
Identifier
10214, 1977-065AT
Orbit
LEO
Country
Flag of USUS
Related business
Manufacturer
Unknown
Mission
Spacecraft
Bus & Motor
Unknown
Mass
Unknown
Launch date (UTC)
1977-07-14 (48 years ago)
Launch vehicle
Unknown
Launch site
Air Force Eastern Test Range (AFETR)
Object type
Payload
Rocket body
Debris
Shape & HBR
Unknown shape, 0.1 m
Radar Cross Section
Medium (>0.1 m² and <1 m²)

Expand to show TLE details & history
Last TLE update: 14 hours ago

TLE from 14 hours ago
0 DELTA 1 DEB
1 10214U 77065AT  25352.32619426  .00008493  00000-0  29621-2 0  9999
2 10214  28.8778 107.8282 0501932 208.8500 148.3416 13.81112396328219
Epoch: 2025-12-18T07:49Z
TLE epoch observation values (Epoch: 2025-12-18T07:49:43.184Z)
Latitude
0.00003°
Longitude
-96.78499°
Altitude
1,276.546 km
Speed
7.062 km/s
True Right ascension
07h 11m 18s
True Declination
0° 00' 00"
Sunlit
Object was in full shadow at epoch
Visualization orbit readout
Latitude
Unknown
Longitude
Unknown
Altitude
Unknown
Speed
Unknown
Apparent Right ascension
Unknown
Apparent Declination
Unknown
Sunlit
N/A
Visualization observer readout
Local Sidereal Time
20:19:18
Azimuth
Unknown
Elevation
Unknown
Doppler factor
Unknown
Orbital elements
Apogee altitude
1,332.385 km
Perigee altitude
595.348 km
Semi-major axis
7,342.004 km
Eccentricity
0.05019
Inclination
28.8778°
RAAN
107.8282°
Arg. of periapsis
208.85°
True anomaly
151.20589°
Mean anomaly
148.3416°
Eccentric anomaly
149.7887°
Mean motion
3.45002 °/min
Orbital period
104.35 mins
BSTAR
0.0029621
Loading maneuver chart data...
Computing Atmospheric mass density...

Documentation

Showing up to 5 results
|